[[{"header":{"parameterUnit":"m.s-1","parameterCategory":2,"la1":30.2991,"la2":30.254,"lo1":-89.0895,"lo2":-89.0444,"dy":0.0017,"dx":0.0017,"nx":28,"ny":28,"refTime":"2024-12-18T03:00:00:Z","depth":"0","parameterNumber":2,"parameterNumberName":"U-component_of_CURRENTS"},"data":[0,0,0,0,0,0,0,0,0,0,0,0,0,0,0,0,0,0,0,0,0,0,0,0,0,0,0,0,0,0,0,0,0,0,0,0,0,0,0,0,0,0,0,0,0,0,0,0,0,0,0,0,0,0,0,0,0,0,-0.2549,-0.2549,0,-0.2521,-0.2521,-0.252,-0.2515,-0.2516,-0.2516,-0.2517,-0.2478,-0.2477,-0.2475,0,0,0,0,0,0,0,0,0,0,0,0,0,-0.2534,-0.2534,-0.2549,-0.2549,-0.2549,-0.2522,-0.2521,-0.252,-0.2515,-0.2516,-0.2516,-0.2517,-0.2479,-0.2477,-0.2475,0,0,0,0,0,0,0,0,0,0,0,0,0,-0.2524,-0.2535,-0.2549,-0.2546,-0.2545,-0.2522,-0.2521,-0.252,-0.2515,-0.2516,-0.2516,-0.2517,-0.248,-0.2477,-0.2475,-0.2446,0,0,-0.2468,-0.2467,0,0,0,0,0,0,0,0,-0.2525,-0.2524,-0.2546,-0.2546,-0.2545,-0.2525,-0.2502,-0.2496,-0.2515,-0.2523,-0.2517,-0.2518,-0.2495,-0.2491,-0.248,-0.2444,-0.2442,-0.2468,-0.2467,-0.2466,-0.2465,0,0,0,0,0,0,0,-0.2525,-0.2525,-0.2535,-0.2546,-0.2546,-0.2524,-0.2523,-0.25,-0.2502,-0.2522,-0.2523,-0.2524,-0.2494,-0.2482,-0.2479,-0.2442,-0.2468,-0.2466,-0.2465,-0.2464,-0.2347,-0.2346,0,0,0,0,0,0,-0.2538,-0.2526,-0.2536,-0.2534,-0.254,-0.2524,-0.2523,-0.2528,-0.2503,-0.25,-0.2524,-0.2524,-0.2485,-0.2482,-0.2478,-0.2411,-0.2466,-0.2464,-0.2462,-0.2349,-0.2347,-0.2345,0,0,0,0,0,0,-0.2538,-0.2539,-0.2537,-0.2532,-0.2531,-0.2524,-0.2529,-0.2528,-0.2519,-0.2504,-0.2502,-0.2519,-0.2486,-0.2481,-0.2447,-0.2411,-0.2463,-0.2461,-0.2351,-0.2348,-0.2346,-0.2297,0,0,0,0,0,0,-0.2537,-0.2539,-0.2537,-0.2533,-0.2532,-0.2518,-0.2529,-0.2527,-0.2521,-0.2521,-0.2499,-0.2496,-0.2486,-0.2451,-0.2445,-0.2409,-0.2459,-0.2353,-0.235,-0.2347,-0.2301,-0.2293,-0.2286,0,0,0,0,0,-0.2537,-0.2524,-0.2537,-0.2538,-0.2533,-0.2517,-0.2513,-0.2509,-0.252,-0.2507,-0.2491,-0.2497,-0.2426,-0.2447,-0.2441,-0.2403,-0.2355,-0.2351,-0.2347,-0.2304,-0.2294,-0.2286,0,0,0,0,0,0,-0.2514,-0.2523,-0.2537,-0.2529,-0.2526,-0.2518,-0.2496,-0.2509,-0.2486,-0.2485,-0.2478,-0.2472,-0.2428,-0.2423,-0.2447,-0.2359,-0.239,-0.2384,-0.2359,-0.235,-0.2343,-0.2318,-0.2457,0,0,0,0,0,-0.2512,-0.2499,-0.2516,-0.2502,-0.2501,-0.2502,-0.2494,-0.2501,-0.2487,-0.2478,-0.2464,-0.2439,-0.2405,-0.2386,-0.236,-0.2313,-0.2294,-0.2283,-0.2276,-0.227,-0.2244,-0.2189,-0.2174,-0.2332,-0.2332,-0.2332,0,0,-0.2498,-0.2498,-0.2493,-0.2495,-0.2486,-0.2454,-0.2497,-0.2483,-0.2451,-0.2476,-0.2417,-0.2417,-0.2389,-0.2334,-0.2313,-0.2326,-0.2216,-0.2265,-0.226,-0.2237,-0.2183,-0.2167,-0.2154,-0.233,-0.233,-0.233,0,0,-0.2424,-0.2465,-0.2412,-0.2416,-0.2412,-0.242,-0.242,-0.2419,-0.2413,-0.2378,-0.2377,-0.2345,-0.2309,-0.2264,-0.2241,-0.2174,-0.2184,-0.2185,-0.212,-0.2067,-0.2054,-0.2041,-0.2004,-0.1988,-0.2176,-0.2176,-0.2176,0,-0.2393,-0.2356,-0.2394,-0.2346,-0.2343,-0.24,-0.2353,-0.2347,-0.2335,-0.2319,-0.2351,-0.2273,-0.2258,-0.2167,-0.2149,-0.2153,-0.2145,-0.216,-0.2057,-0.2045,-0.2033,-0.1997,-0.1981,-0.2173,-0.2173,-0.2174,-0.2174,0,-0.2267,-0.226,-0.2231,-0.2194,-0.2196,-0.2177,-0.2197,-0.2191,-0.2213,-0.2209,-0.2158,-0.2144,-0.2098,-0.2091,-0.21,-0.2008,-0.2037,-0.2062,-0.2081,-0.2014,-0.1981,-0.1965,-0.2169,-0.217,-0.2171,-0.2171,0,0,-0.2131,-0.214,-0.2129,-0.2128,-0.2132,-0.2129,-0.2083,-0.2063,-0.2046,-0.2036,-0.1993,-0.1932,-0.1961,-0.1935,-0.1948,-0.1902,-0.1821,-0.1953,-0.1952,-0.1918,-0.1723,-0.1636,-0.1611,-0.1848,-0.1844,-0.1842,-0.1737,0,-0.2013,-0.1941,-0.1963,-0.1913,-0.1899,-0.1956,-0.1919,-0.192,-0.1937,-0.1917,-0.19,-0.1873,-0.1892,-0.1898,-0.1843,-0.1847,-0.1777,-0.1848,-0.179,-0.1787,-0.172,-0.1587,-0.1459,-0.1345,-0.1721,-0.1719,-0.1717,0,-0.1867,-0.1857,-0.1796,-0.1835,-0.1828,-0.1804,-0.1812,-0.1791,-0.1781,-0.1797,-0.1765,-0.1788,-0.1717,-0.1766,-0.1665,-0.1726,-0.1699,-0.1692,-0.1689,-0.1606,-0.1668,-0.147,-0.1302,-0.1278,-0.1692,-0.1694,-0.1696,0,-0.1779,-0.1749,-0.172,-0.1725,-0.1749,-0.1732,-0.1744,-0.1745,-0.1752,-0.1733,-0.174,-0.1677,-0.1661,-0.1612,-0.1594,-0.164,-0.1499,-0.1559,-0.1433,-0.1429,-0.1299,-0.1288,-0.1093,-0.1439,-0.1439,-0.1439,-0.144,0,-0.1669,-0.1645,-0.1689,-0.1678,-0.166,-0.169,-0.1677,-0.168,-0.1693,-0.1652,-0.1683,-0.1622,-0.1627,-0.1566,-0.155,-0.1423,-0.1446,-0.1368,-0.1367,-0.128,-0.1268,-0.1228,-0.1269,-0.1435,-0.1436,-0.1437,-0.1438,0,-0.1572,-0.1598,-0.1579,-0.1607,-0.1626,-0.1614,-0.1673,-0.1672,-0.1678,-0.1627,-0.1621,-0.1585,-0.1473,-0.1466,-0.1379,-0.1344,-0.121,-0.1205,-0.1108,-0.1094,-0.0952,-0.0996,-0.084,-0.0822,-0.1036,-0.1033,-0.103,0,-0.151,-0.1493,-0.1537,-0.1562,-0.1575,-0.1596,-0.1622,-0.1659,-0.164,-0.1555,-0.15,-0.1415,-0.124,-0.111,-0.1069,-0.0981,-0.1044,-0.0843,-0.087,-0.0861,-0.0911,-0.1001,-0.1006,-0.0696,-0.069,-0.0686,-0.0683,0,-0.1395,-0.1419,-0.1425,-0.1487,-0.1523,-0.1499,-0.1509,-0.1489,-0.146,-0.1367,-0.1122,-0.0972,-0.0881,-0.0674,-0.0658,-0.0644,-0.0799,-0.0749,-0.0747,-0.0596,-0.067,-0.0681,-0.0887,-0.0644,-0.0648,-0.0651,-0.0653,-0.0654,-0.1314,-0.1317,-0.1357,-0.1396,-0.141,-0.1288,-0.1205,-0.1158,-0.0992,-0.0751,-0.072,-0.044,-0.0304,-0.0217,-0.0291,-0.0338,-0.0472,-0.032,-0.0368,-0.0457,-0.0428,-0.0544,-0.0303,-0.0305,-0.0306,-0.0308,-0.0309,0,-0.1214,-0.1234,-0.1278,-0.1246,-0.1153,-0.1186,-0.1052,-0.0904,-0.0595,-0.0436,-0.0162,0.0158,0.0325,0.0226,0.0212,0.0119,-0.0049,0.0003,-0.0088,-0.011,-0.0178,-0.0149,0.0147,0.0147,0.0147,0.0147,0.0147,0.0147,-0.1169,-0.1176,-0.1208,-0.0992,-0.0929,-0.069,-0.0541,-0.0328,-0.0176,0.0184,0.0352,0.043,0.0493,0.0635,0.0527,0.0393,0.0224,0.0162,0.005,0.0008,-0.0027,-0.0062,-0.004,0.0274,0.0274,0.0155,0.0154,0.0154]},{"header":{"parameterUnit":"m.s-1","parameterCategory":2,"la1":30.2991,"la2":30.254,"lo1":-89.0895,"lo2":-89.0444,"dy":0.0017,"dx":0.0017,"nx":28,"ny":28,"refTime":"2024-12-18T03:00:00:Z","depth":"0","parameterNumber":3,"parameterNumberName":"V-component_of_CURRENTS"},"data":[0,0,0,0,0,0,0,0,0,0,0,0,0,0,0,0,0,0,0,0,0,0,0,0,0,0,0,0,0,0,0,0,0,0,0,0,0,0,0,0,0,0,0,0,0,0,0,0,0,0,0,0,0,0,0,0,0,0,-0.0204,-0.0203,0,-0.0068,-0.0067,-0.0065,0.004,0.0041,0.0042,0.0043,0.0184,0.0187,0.019,0,0,0,0,0,0,0,0,0,0,0,0,0,-0.0342,-0.034,-0.0204,-0.0202,-0.0201,-0.0069,-0.0067,-0.0065,0.004,0.0041,0.0042,0.0043,0.0183,0.0186,0.019,0,0,0,0,0,0,0,0,0,0,0,0,0,-0.0251,-0.034,-0.0204,-0.0134,-0.0126,-0.0069,-0.0066,-0.0064,0.004,0.0041,0.0042,0.0044,0.0182,0.0186,0.019,0.0191,0,0,0.0204,0.0206,0,0,0,0,0,0,0,0,-0.0256,-0.0246,-0.0146,-0.0139,-0.013,-0.0031,-0.0063,0.0021,0.004,-0.0022,0.0043,0.0044,0.0111,0.0121,0.0146,0.0198,0.0204,0.0204,0.0207,0.0209,0.021,0,0,0,0,0,0,0,-0.0263,-0.0251,-0.0149,-0.0144,-0.0135,-0.0099,-0.0084,-0.0047,0.0037,-0.0016,-0.0009,0.0004,0.0115,0.0141,0.015,0.0206,0.0204,0.0208,0.0211,0.0213,0.0255,0.0254,0,0,0,0,0,0,-0.0285,-0.0257,-0.0153,-0.0145,-0.0193,-0.0097,-0.0081,-0.0063,0.0036,0.0052,0.0002,0.0008,0.0133,0.0144,0.0155,0.0143,0.0209,0.0213,0.0215,0.0257,0.0255,0.0253,0,0,0,0,0,0,-0.0288,-0.0277,-0.0159,-0.0199,-0.0182,-0.0097,-0.0077,-0.0061,-0.0034,0.005,0.0067,0.0013,0.0134,0.0149,0.0179,0.015,0.0215,0.0219,0.0259,0.0256,0.0254,0.0131,0,0,0,0,0,0,-0.0293,-0.0279,-0.0277,-0.0201,-0.018,-0.0136,-0.0078,-0.0059,-0.0029,-0.002,0.0065,0.008,0.0136,0.0171,0.0183,0.0157,0.0222,0.026,0.0258,0.0255,0.0137,0.0125,0.0114,0,0,0,0,0,-0.0298,-0.0302,-0.0277,-0.0265,-0.0179,-0.0137,-0.0124,-0.0058,-0.003,-0.0027,0.0027,0.0077,0.0162,0.0174,0.0188,0.0162,0.0262,0.0258,0.0255,0.0142,0.0127,0.0114,0,0,0,0,0,0,-0.0359,-0.0289,-0.0261,-0.0242,-0.02,-0.012,-0.0113,-0.0071,-0.0024,-0.0017,0.0063,0.008,0.0095,0.0141,0.0153,0.0165,0.0218,0.0217,0.0127,0.0113,0.0102,0.0103,0.0226,0,0,0,0,0,-0.0374,-0.0359,-0.0291,-0.028,-0.0264,-0.0193,-0.0169,-0.0126,-0.0074,-0.0051,0.0005,0.0057,0.009,0.0112,0.0153,0.016,0.021,0.0151,0.0139,0.0129,0.0138,0.0172,0.0165,0.0242,0.0242,0.0242,0,0,-0.0395,-0.0357,-0.0347,-0.0293,-0.0254,-0.0242,-0.0175,-0.0148,-0.0139,-0.0046,-0.0026,0.002,0.0083,0.0093,0.0102,0.013,0.0131,0.0125,0.0116,0.0131,0.0168,0.0161,0.0154,0.024,0.024,0.0241,0,0,-0.0437,-0.0398,-0.0402,-0.0375,-0.0327,-0.0285,-0.0285,-0.0218,-0.0189,-0.0168,-0.0105,-0.0077,-0.002,0.0019,0.0045,-0.0007,0.0068,-0.0,-0.0054,-0.0022,-0.0028,-0.0032,0.001,0.001,-0.0005,-0.0006,-0.0006,0,-0.0468,-0.0452,-0.04,-0.0401,-0.0382,-0.0314,-0.0317,-0.0288,-0.0221,-0.0201,-0.0179,-0.01,-0.0055,-0.0034,-0.0054,-0.0032,0.0006,-0.0009,-0.0036,-0.004,-0.0042,0.0002,0.0004,-0.0012,-0.0011,-0.0011,-0.001,0,-0.0508,-0.0499,-0.0504,-0.0479,-0.0459,-0.045,-0.0403,-0.0385,-0.0347,-0.0305,-0.0276,-0.0218,-0.0162,-0.0161,-0.0121,-0.0121,-0.0084,-0.0057,-0.0003,-0.0057,-0.0007,-0.0003,-0.0021,-0.0019,-0.0017,-0.0015,0,0,-0.0558,-0.0536,-0.0536,-0.0533,-0.0494,-0.0478,-0.0479,-0.0441,-0.0424,-0.0388,-0.0364,-0.033,-0.0284,-0.0252,-0.0205,-0.0184,-0.0182,-0.0136,-0.0131,-0.0095,-0.0103,-0.0051,-0.0041,-0.0161,-0.0161,-0.0161,-0.0066,0,-0.06,-0.062,-0.0592,-0.0607,-0.0608,-0.0556,-0.0553,-0.0517,-0.0474,-0.044,-0.0392,-0.0351,-0.0324,-0.0294,-0.0279,-0.0187,-0.0174,-0.0209,-0.0053,-0.0048,0.0004,-0.0035,0.0031,0.0124,-0.0061,-0.006,-0.0059,0,-0.0637,-0.0643,-0.0668,-0.065,-0.0645,-0.0648,-0.0607,-0.0595,-0.054,-0.0505,-0.0466,-0.0406,-0.0363,-0.0338,-0.0237,-0.0258,-0.0198,-0.0141,-0.0135,-0.0035,0.0012,0.0152,0.014,0.014,-0.0052,-0.0052,-0.0053,0,-0.0678,-0.0687,-0.0706,-0.0702,-0.0682,-0.0681,-0.0666,-0.0615,-0.0569,-0.0538,-0.0477,-0.0444,-0.0372,-0.0324,-0.02,-0.0218,-0.0076,-0.0082,0.0015,0.002,0.0137,0.0152,0.0149,-0.0032,-0.0032,-0.0032,-0.0032,0,-0.0716,-0.0728,-0.0729,-0.0738,-0.0752,-0.0723,-0.0702,-0.0686,-0.0608,-0.0482,-0.0506,-0.0373,-0.036,-0.0257,-0.0202,-0.006,-0.0075,0.0009,0.0046,0.0094,0.0103,0.016,0.0135,-0.0028,-0.0029,-0.003,-0.0031,0,-0.0746,-0.0748,-0.077,-0.0771,-0.0771,-0.0781,-0.0709,-0.0633,-0.0607,-0.0438,-0.041,-0.031,-0.0181,-0.0164,-0.0049,-0.0015,0.0109,0.0128,0.0184,0.0224,0.0284,0.025,0.0302,0.0355,0.0229,0.0231,0.0233,0,-0.0759,-0.0776,-0.0799,-0.0792,-0.0791,-0.078,-0.0701,-0.0646,-0.0505,-0.0313,-0.0173,-0.0081,0.012,0.0217,0.0192,0.0232,0.0227,0.0341,0.0301,0.0297,0.0286,0.0243,0.028,0.0407,0.041,0.0412,0.0414,0,-0.0781,-0.0792,-0.0812,-0.0784,-0.0729,-0.0632,-0.0508,-0.0404,-0.0213,-0.0036,0.0303,0.0448,0.0469,0.0546,0.0457,0.0474,0.0352,0.0391,0.0378,0.0415,0.0379,0.0446,0.0332,0.0435,0.0433,0.0431,0.043,0.0429,-0.0789,-0.0813,-0.08,-0.0747,-0.0647,-0.0408,-0.028,-0.0052,0.0224,0.0606,0.0727,0.1026,0.0942,0.081,0.0718,0.0554,0.0512,0.0595,0.0554,0.051,0.0552,0.048,0.0624,0.0623,0.0622,0.0621,0.0621,0,-0.0779,-0.0761,-0.0728,-0.0609,-0.0387,-0.0356,-0.0054,0.0165,0.0577,0.0933,0.1278,0.1545,0.1404,0.1152,0.0858,0.0764,0.069,0.0732,0.0679,0.0712,0.0659,0.0659,0.0826,0.0826,0.0826,0.0826,0.0826,0.0826,-0.0773,-0.0733,-0.068,-0.0332,-0.0206,0.0143,0.0349,0.0666,0.0949,0.1509,0.1822,0.2016,0.1809,0.1227,0.0893,0.084,0.0803,0.0774,0.0758,0.0695,0.0678,0.0662,0.0655,0.082,0.082,0.0858,0.0858,0.0858]}],[{"header":{"parameterUnit":"m.s-1","parameterCategory":2,"la1":30.2991,"la2":30.254,"lo1":-89.0895,"lo2":-89.0444,"dy":0.0017,"dx":0.0017,"nx":28,"ny":28,"refTime":"2024-12-18T03:00:00:Z","depth":"2","parameterNumber":2,"parameterNumberName":"U-component_of_CURRENTS"},"data":[0,0,0,0,0,0,0,0,0,0,0,0,0,0,0,0,0,0,0,0,0,0,0,0,0,0,0,0,0,0,0,0,0,0,0,0,0,0,0,0,0,0,0,0,0,0,0,0,0,0,0,0,0,0,0,0,0,0,-0.1599,-0.16,0,-0.1601,-0.1601,-0.1601,-0.1591,-0.1591,-0.1591,-0.1591,-0.1618,-0.1618,-0.1619,0,0,0,0,0,0,0,0,0,0,0,0,0,-0.1579,-0.1579,-0.1599,-0.16,-0.16,-0.1601,-0.1601,-0.1601,-0.1591,-0.1591,-0.1591,-0.1591,-0.1617,-0.1618,-0.1619,0,0,0,0,0,0,0,0,0,0,0,0,0,-0.1583,-0.1579,-0.1599,-0.1597,-0.1597,-0.1601,-0.1601,-0.1601,-0.1592,-0.1591,-0.1591,-0.1591,-0.1617,-0.1618,-0.1619,-0.163,0,0,-0.1623,-0.1624,0,0,0,0,0,0,0,0,-0.1583,-0.1583,-0.1597,-0.1597,-0.1597,-0.1598,-0.1604,-0.1613,-0.1592,-0.1591,-0.1591,-0.1591,-0.1615,-0.1616,-0.1614,-0.1631,-0.1632,-0.1623,-0.1624,-0.1624,-0.1625,0,0,0,0,0,0,0,-0.1582,-0.1583,-0.1598,-0.1597,-0.1597,-0.1592,-0.1593,-0.1605,-0.1603,-0.1591,-0.1591,-0.1595,-0.1614,-0.1612,-0.1614,-0.1632,-0.1623,-0.1624,-0.1625,-0.1625,-0.1627,-0.1627,0,0,0,0,0,0,-0.1587,-0.1583,-0.1598,-0.1598,-0.1591,-0.1593,-0.1593,-0.1596,-0.1602,-0.1603,-0.1595,-0.1594,-0.161,-0.1613,-0.1615,-0.1612,-0.1624,-0.1625,-0.1626,-0.1628,-0.1627,-0.1626,0,0,0,0,0,0,-0.1586,-0.1588,-0.1598,-0.1592,-0.1594,-0.1594,-0.1597,-0.1596,-0.1603,-0.1605,-0.1606,-0.1603,-0.161,-0.1614,-0.1626,-0.1613,-0.1626,-0.1627,-0.1629,-0.1628,-0.1627,-0.1616,0,0,0,0,0,0,-0.1586,-0.1588,-0.1592,-0.1593,-0.1594,-0.1599,-0.1597,-0.1596,-0.1605,-0.1605,-0.1612,-0.1614,-0.1611,-0.1624,-0.1627,-0.1615,-0.1628,-0.163,-0.1628,-0.1627,-0.1617,-0.1614,-0.1612,0,0,0,0,0,-0.1585,-0.159,-0.1592,-0.1594,-0.16,-0.1599,-0.1598,-0.1597,-0.1606,-0.1604,-0.1611,-0.1614,-0.1617,-0.1625,-0.1628,-0.1617,-0.163,-0.1629,-0.1627,-0.1618,-0.1615,-0.1612,0,0,0,0,0,0,-0.1583,-0.1589,-0.1592,-0.1599,-0.1599,-0.1598,-0.1599,-0.1605,-0.1609,-0.1613,-0.1618,-0.162,-0.1617,-0.1624,-0.1632,-0.1611,-0.1619,-0.1619,-0.1611,-0.1608,-0.1606,-0.1597,-0.1629,0,0,0,0,0,-0.1586,-0.159,-0.1594,-0.1599,-0.16,-0.1604,-0.1607,-0.1606,-0.1611,-0.1613,-0.1617,-0.1619,-0.1612,-0.1618,-0.1611,-0.1618,-0.1601,-0.1607,-0.1605,-0.1603,-0.1597,-0.1566,-0.1561,-0.1622,-0.1622,-0.1622,0,0,-0.1586,-0.1591,-0.1593,-0.1599,-0.16,-0.1601,-0.1605,-0.1608,-0.1607,-0.1617,-0.1618,-0.1613,-0.1611,-0.1601,-0.1601,-0.1609,-0.1575,-0.1601,-0.16,-0.1594,-0.1564,-0.1558,-0.1553,-0.1621,-0.1621,-0.1621,0,0,-0.1586,-0.1594,-0.1596,-0.1598,-0.1604,-0.1604,-0.1609,-0.1611,-0.1608,-0.1613,-0.1607,-0.1596,-0.1606,-0.1585,-0.1581,-0.1567,-0.1559,-0.1568,-0.1558,-0.1528,-0.1523,-0.1518,-0.148,-0.1472,-0.1572,-0.1572,-0.1572,0,-0.1589,-0.1586,-0.1596,-0.1599,-0.1597,-0.1608,-0.1605,-0.1607,-0.1611,-0.1601,-0.1612,-0.1591,-0.159,-0.1565,-0.1555,-0.156,-0.1544,-0.1571,-0.1525,-0.152,-0.1515,-0.1478,-0.1469,-0.1572,-0.1572,-0.1572,-0.1572,0,-0.1585,-0.1586,-0.1588,-0.1594,-0.1596,-0.1593,-0.1598,-0.1597,-0.1601,-0.1595,-0.1572,-0.1566,-0.155,-0.1545,-0.155,-0.1512,-0.1511,-0.1522,-0.1533,-0.1509,-0.147,-0.1461,-0.1571,-0.1571,-0.1571,-0.1571,0,0,-0.1571,-0.1583,-0.158,-0.1576,-0.1588,-0.1585,-0.1587,-0.1574,-0.1568,-0.1564,-0.1545,-0.1524,-0.1518,-0.1511,-0.1507,-0.1486,-0.1437,-0.1495,-0.1494,-0.1459,-0.1366,-0.128,-0.1262,-0.1447,-0.1445,-0.1444,-0.1349,0,-0.1557,-0.1554,-0.1566,-0.1557,-0.155,-0.1561,-0.1561,-0.1556,-0.1553,-0.154,-0.152,-0.1505,-0.1507,-0.1501,-0.1476,-0.145,-0.1414,-0.1461,-0.1393,-0.1391,-0.1319,-0.1249,-0.114,-0.1038,-0.134,-0.1338,-0.1337,0,-0.1533,-0.1534,-0.1522,-0.1524,-0.1523,-0.1527,-0.1515,-0.1518,-0.1509,-0.1506,-0.1488,-0.1483,-0.1445,-0.1459,-0.1386,-0.142,-0.1385,-0.1364,-0.136,-0.1277,-0.1288,-0.1113,-0.1011,-0.1322,-0.1324,-0.1325,-0.1326,0,-0.1485,-0.1493,-0.1478,-0.148,-0.1494,-0.149,-0.1498,-0.1499,-0.1494,-0.1484,-0.1477,-0.1444,-0.1418,-0.1381,-0.1335,-0.1363,-0.1252,-0.1285,-0.1167,-0.1161,-0.105,-0.1036,-0.1216,-0.1216,-0.1217,-0.1217,-0.1217,0,-0.1442,-0.1427,-0.1458,-0.1447,-0.1436,-0.1461,-0.145,-0.1457,-0.1463,-0.1438,-0.1455,-0.1416,-0.1398,-0.1341,-0.1312,-0.1193,-0.1226,-0.1135,-0.1119,-0.1041,-0.1028,-0.1271,-0.1278,-0.1213,-0.1214,-0.1215,-0.1215,0,-0.1372,-0.1393,-0.138,-0.1402,-0.141,-0.1402,-0.1429,-0.1413,-0.1438,-0.1406,-0.1402,-0.138,-0.1286,-0.1252,-0.1172,-0.1137,-0.1058,-0.101,-0.0912,-0.0885,-0.0996,-0.1005,-0.0864,-0.086,-0.0856,-0.0854,-0.0851,0,-0.1328,-0.1317,-0.1343,-0.1335,-0.1342,-0.1349,-0.1343,-0.1385,-0.1369,-0.1363,-0.1325,-0.1257,-0.1164,-0.1021,-0.0923,-0.0818,-0.092,-0.0693,-0.0717,-0.0955,-0.0955,-0.0969,-0.0981,-0.0567,-0.0562,-0.0559,-0.0556,0,-0.1243,-0.1262,-0.1255,-0.1244,-0.124,-0.1239,-0.1239,-0.1233,-0.1257,-0.124,-0.117,-0.1109,-0.0948,-0.0769,-0.0645,-0.0585,-0.0705,-0.0611,-0.0863,-0.0676,-0.0668,-0.0671,-0.0694,-0.0522,-0.0526,-0.0528,-0.053,-0.0531,-0.1175,-0.1156,-0.115,-0.1128,-0.1125,-0.1094,-0.1059,-0.1064,-0.1032,-0.0966,-0.0987,-0.0852,-0.0783,-0.0499,-0.0416,-0.034,-0.0413,-0.0413,-0.0427,-0.0445,-0.0431,-0.0417,-0.0221,-0.0223,-0.0224,-0.0225,-0.0226,0,-0.1069,-0.1051,-0.1027,-0.0991,-0.0937,-0.0977,-0.0948,-0.0892,-0.0816,-0.0767,-0.0701,-0.0538,-0.0382,-0.0317,-0.0126,-0.0085,-0.0116,-0.0089,-0.0148,-0.0178,-0.0205,-0.0184,0.0094,0.0094,0.0094,0.0095,0,0,-0.1004,-0.0939,-0.0924,-0.0799,-0.0776,-0.0674,-0.0638,-0.0587,-0.053,-0.0426,-0.0348,-0.0345,-0.0295,-0.0129,-0.006,0.0046,-0.0074,0.0071,-0.0175,-0.0273,-0.0301,-0.0366,-0.0362,0,0,0,0,0]},{"header":{"parameterUnit":"m.s-1","parameterCategory":2,"la1":30.2991,"la2":30.254,"lo1":-89.0895,"lo2":-89.0444,"dy":0.0017,"dx":0.0017,"nx":28,"ny":28,"refTime":"2024-12-18T03:00:00:Z","depth":"2","parameterNumber":3,"parameterNumberName":"V-component_of_CURRENTS"},"data":[0,0,0,0,0,0,0,0,0,0,0,0,0,0,0,0,0,0,0,0,0,0,0,0,0,0,0,0,0,0,0,0,0,0,0,0,0,0,0,0,0,0,0,0,0,0,0,0,0,0,0,0,0,0,0,0,0,0,-0.046,-0.0459,0,-0.0417,-0.0416,-0.0416,-0.0395,-0.0395,-0.0395,-0.0395,-0.0319,-0.0317,-0.0315,0,0,0,0,0,0,0,0,0,0,0,0,0,-0.0501,-0.05,-0.046,-0.0459,-0.0458,-0.0417,-0.0416,-0.0416,-0.0395,-0.0395,-0.0395,-0.0395,-0.032,-0.0318,-0.0315,0,0,0,0,0,0,0,0,0,0,0,0,0,-0.0474,-0.05,-0.046,-0.0443,-0.0441,-0.0417,-0.0416,-0.0416,-0.0395,-0.0395,-0.0395,-0.0395,-0.0321,-0.0318,-0.0315,-0.0298,0,0,-0.0306,-0.0305,0,0,0,0,0,0,0,0,-0.0475,-0.0472,-0.0446,-0.0444,-0.0441,-0.0411,-0.0403,-0.0375,-0.0395,-0.0413,-0.0395,-0.0395,-0.0346,-0.0341,-0.0335,-0.0295,-0.0291,-0.0306,-0.0304,-0.0303,-0.0302,0,0,0,0,0,0,0,-0.0477,-0.0474,-0.0443,-0.0445,-0.0442,-0.0429,-0.0426,-0.0398,-0.0381,-0.0411,-0.041,-0.0404,-0.0345,-0.0338,-0.0333,-0.029,-0.0306,-0.0303,-0.0301,-0.03,-0.0224,-0.0224,0,0,0,0,0,0,-0.0482,-0.0476,-0.0445,-0.0442,-0.0458,-0.0429,-0.0424,-0.0421,-0.0381,-0.0375,-0.0404,-0.0403,-0.0343,-0.0336,-0.033,-0.03,-0.0303,-0.03,-0.0298,-0.0225,-0.0224,-0.0224,0,0,0,0,0,0,-0.0483,-0.048,-0.0446,-0.0457,-0.0452,-0.0428,-0.0424,-0.042,-0.0412,-0.0376,-0.037,-0.04,-0.0343,-0.0334,-0.0303,-0.0298,-0.0298,-0.0296,-0.0225,-0.0224,-0.0224,-0.0246,0,0,0,0,0,0,-0.0485,-0.0481,-0.0482,-0.0458,-0.0451,-0.0434,-0.0424,-0.042,-0.0409,-0.0407,-0.037,-0.0364,-0.0342,-0.0308,-0.03,-0.0293,-0.0293,-0.0225,-0.0225,-0.0224,-0.0245,-0.0246,-0.0247,0,0,0,0,0,-0.0486,-0.0486,-0.0483,-0.0479,-0.0454,-0.0434,-0.0429,-0.0412,-0.0409,-0.0405,-0.0379,-0.0365,-0.0299,-0.0305,-0.0296,-0.0289,-0.0225,-0.0225,-0.0224,-0.0245,-0.0246,-0.0247,0,0,0,0,0,0,-0.0505,-0.0484,-0.0479,-0.0473,-0.0456,-0.043,-0.0425,-0.0414,-0.0392,-0.039,-0.0359,-0.0349,-0.0322,-0.0302,-0.0309,-0.0266,-0.0261,-0.0259,-0.028,-0.028,-0.0281,-0.0283,-0.0291,0,0,0,0,0,-0.051,-0.0506,-0.0483,-0.0479,-0.0471,-0.0449,-0.044,-0.0429,-0.0405,-0.0396,-0.0369,-0.034,-0.0313,-0.0295,-0.0269,-0.0242,-0.0221,-0.0233,-0.0233,-0.0234,-0.023,-0.0196,-0.0193,-0.0222,-0.0222,-0.0222,0,0,-0.0516,-0.0504,-0.0502,-0.0483,-0.0469,-0.0456,-0.0444,-0.043,-0.0418,-0.039,-0.0365,-0.0343,-0.0307,-0.028,-0.0266,-0.0261,-0.0216,-0.0234,-0.0235,-0.0229,-0.0195,-0.0192,-0.0189,-0.0222,-0.0222,-0.0222,0,0,-0.0524,-0.0516,-0.0513,-0.05,-0.048,-0.0464,-0.0461,-0.0435,-0.0423,-0.0398,-0.0375,-0.0346,-0.0307,-0.0277,-0.0258,-0.0246,-0.0224,-0.0243,-0.0242,-0.021,-0.0207,-0.0204,-0.0179,-0.0173,-0.024,-0.024,-0.024,0,-0.0533,-0.0527,-0.051,-0.0502,-0.0491,-0.0468,-0.0461,-0.0442,-0.041,-0.0396,-0.0393,-0.0332,-0.0303,-0.0262,-0.0259,-0.0247,-0.023,-0.0243,-0.0211,-0.0208,-0.0204,-0.0179,-0.0173,-0.0241,-0.0241,-0.0241,-0.024,0,-0.0536,-0.0531,-0.0528,-0.0511,-0.0497,-0.0487,-0.0459,-0.0443,-0.0427,-0.0406,-0.037,-0.0333,-0.0296,-0.0283,-0.0265,-0.0229,-0.0225,-0.022,-0.021,-0.0203,-0.0176,-0.017,-0.0242,-0.0242,-0.0242,-0.0241,0,0,-0.0555,-0.0535,-0.0535,-0.053,-0.0502,-0.0491,-0.0467,-0.0438,-0.0422,-0.0392,-0.0369,-0.032,-0.0304,-0.0281,-0.0256,-0.0224,-0.0188,-0.0214,-0.0212,-0.0192,-0.0121,-0.0109,-0.0101,-0.018,-0.0179,-0.0178,-0.0113,0,-0.0564,-0.056,-0.0542,-0.0533,-0.0528,-0.0498,-0.0477,-0.0448,-0.042,-0.0391,-0.035,-0.0319,-0.0302,-0.0286,-0.0252,-0.0203,-0.0171,-0.0206,-0.0128,-0.0126,-0.0118,-0.0093,-0.0112,-0.0055,-0.0107,-0.0106,-0.0105,0,-0.0574,-0.057,-0.0568,-0.0547,-0.0541,-0.0531,-0.0496,-0.0474,-0.0425,-0.0403,-0.0366,-0.0334,-0.0279,-0.0273,-0.0183,-0.0209,-0.0167,-0.013,-0.0127,-0.0102,-0.0101,-0.0069,-0.0041,-0.0094,-0.0094,-0.0095,-0.0096,0,-0.0601,-0.0587,-0.0589,-0.0583,-0.0554,-0.0547,-0.0529,-0.0483,-0.046,-0.0413,-0.039,-0.0331,-0.0293,-0.0236,-0.0158,-0.0171,-0.0063,-0.007,-0.0019,-0.0018,-0.001,-0.001,-0.0006,-0.0006,-0.0007,-0.0007,-0.0007,0,-0.0618,-0.0618,-0.0607,-0.0608,-0.0609,-0.0577,-0.0564,-0.0535,-0.0487,-0.0458,-0.0403,-0.0361,-0.0281,-0.021,-0.0155,-0.0061,-0.0057,-0.0008,0.0006,-0.0019,-0.002,-0.0035,-0.004,-0.0004,-0.0005,-0.0005,-0.0006,0,-0.0645,-0.0636,-0.0642,-0.0628,-0.0625,-0.0628,-0.0595,-0.058,-0.0528,-0.0488,-0.0472,-0.0374,-0.0276,-0.0193,-0.0085,-0.0046,0.0033,0.0064,0.0027,0.0036,0.0053,0.0046,0.0126,0.0127,0.0128,0.0128,0.0129,0,-0.0657,-0.0664,-0.067,-0.0679,-0.0677,-0.0673,-0.0666,-0.0617,-0.0592,-0.0491,-0.0472,-0.036,-0.0279,-0.0115,-0.0023,0.008,0.0078,0.0117,0.0095,0.0064,0.0069,0.0062,0.0054,0.0094,0.0094,0.0095,0.0095,0,-0.068,-0.0687,-0.0696,-0.0718,-0.0726,-0.0724,-0.0708,-0.0692,-0.0622,-0.0568,-0.0475,-0.0397,-0.0228,-0.0106,0.0033,0.0087,0.0096,0.0125,0.012,0.006,0.0039,0.0042,0.0035,0.0097,0.0097,0.0097,0.0097,0.0096,-0.0699,-0.0719,-0.0734,-0.0752,-0.0763,-0.0762,-0.0744,-0.0711,-0.0662,-0.0547,-0.0497,-0.0347,-0.0244,-0.0023,0.0054,0.014,0.0138,0.0148,0.0145,0.0143,0.0124,0.0105,0.0173,0.0173,0.0173,0.0173,0.0173,0,-0.0713,-0.0733,-0.0759,-0.0774,-0.078,-0.0779,-0.0753,-0.0703,-0.0635,-0.0534,-0.0438,-0.0289,-0.0164,-0.0029,0.0103,0.0157,0.0143,0.017,0.0132,0.013,0.0128,0.0106,0.0151,0.0151,0.0151,0.0152,0,0,-0.0721,-0.0748,-0.0761,-0.0775,-0.0781,-0.0758,-0.0735,-0.0656,-0.0562,-0.0426,-0.0312,-0.0242,-0.0109,-0.0033,0.0031,0.0108,0.0106,0.0115,0.0126,0.0071,0.0068,0.0108,0.0071,0,0,0,0,0]}],[{"header":{"parameterUnit":"m.s-1","parameterCategory":2,"la1":30.2991,"la2":30.254,"lo1":-89.0895,"lo2":-89.0444,"dy":0.0017,"dx":0.0017,"nx":28,"ny":28,"refTime":"2024-12-18T03:00:00:Z","depth":"4","parameterNumber":2,"parameterNumberName":"U-component_of_CURRENTS"},"data":[0,0,0,0,0,0,0,0,0,0,0,0,0,0,0,0,0,0,0,0,0,0,0,0,0,0,0,0,0,0,0,0,0,0,0,0,0,0,0,0,0,0,0,0,0,0,0,0,0,0,0,0,0,0,0,0,0,0,-0.1025,-0.1026,0,-0.1047,-0.1048,-0.1048,-0.1078,-0.1078,-0.1079,-0.1079,-0.1098,-0.1098,-0.1098,0,0,0,0,0,0,0,0,0,0,0,0,0,-0.1001,-0.1001,-0.1025,-0.1026,-0.1026,-0.1047,-0.1048,-0.1048,-0.1078,-0.1078,-0.1079,-0.1079,-0.1098,-0.1098,-0.1098,0,0,0,0,0,0,0,0,0,0,0,0,0,-0.1016,-0.1001,-0.1025,-0.1043,-0.1045,-0.1047,-0.1048,-0.1048,-0.1078,-0.1078,-0.1079,-0.108,-0.1098,-0.1098,-0.1098,-0.1085,0,0,-0.1098,-0.1098,0,0,0,0,0,0,0,0,-0.1015,-0.1017,-0.104,-0.1042,-0.1044,-0.106,-0.1046,-0.106,-0.1077,-0.1066,-0.1079,-0.108,-0.1084,-0.1085,-0.1089,-0.1086,-0.1087,-0.1098,-0.1098,-0.1098,-0.1098,0,0,0,0,0,0,0,-0.1014,-0.1016,-0.1035,-0.104,-0.1042,-0.1047,-0.105,-0.1049,-0.1071,-0.1067,-0.1069,-0.107,-0.1085,-0.1088,-0.1089,-0.1087,-0.1098,-0.1098,-0.1098,-0.1098,-0.1128,-0.1129,0,0,0,0,0,0,-0.101,-0.1015,-0.1034,-0.1035,-0.103,-0.1047,-0.105,-0.1055,-0.1071,-0.1074,-0.107,-0.1071,-0.1088,-0.1089,-0.109,-0.1123,-0.1098,-0.1098,-0.1098,-0.1127,-0.1128,-0.1129,0,0,0,0,0,0,-0.101,-0.1012,-0.1033,-0.1025,-0.1028,-0.1046,-0.1051,-0.1055,-0.1078,-0.1073,-0.1077,-0.1092,-0.1089,-0.109,-0.1112,-0.1122,-0.1098,-0.1099,-0.1126,-0.1128,-0.1129,-0.1158,0,0,0,0,0,0,-0.1009,-0.1012,-0.1026,-0.1025,-0.1029,-0.1048,-0.105,-0.1055,-0.1077,-0.108,-0.1093,-0.1094,-0.1089,-0.1112,-0.1112,-0.1121,-0.1099,-0.1126,-0.1127,-0.1128,-0.1156,-0.1159,-0.1163,0,0,0,0,0,-0.1008,-0.1022,-0.1026,-0.1029,-0.1043,-0.1048,-0.1051,-0.1066,-0.1077,-0.109,-0.1104,-0.1095,-0.112,-0.1113,-0.1113,-0.1122,-0.1125,-0.1127,-0.1128,-0.1154,-0.1159,-0.1163,0,0,0,0,0,0,-0.1021,-0.1026,-0.1031,-0.1047,-0.1053,-0.1054,-0.1071,-0.1077,-0.1098,-0.1108,-0.1106,-0.1108,-0.1129,-0.1124,-0.1116,-0.1136,-0.112,-0.1122,-0.114,-0.1144,-0.1148,-0.1137,-0.1099,0,0,0,0,0,-0.1028,-0.1041,-0.1042,-0.1057,-0.1063,-0.107,-0.1079,-0.1087,-0.1098,-0.1109,-0.1118,-0.1127,-0.1131,-0.1139,-0.1141,-0.1154,-0.1128,-0.116,-0.1163,-0.1166,-0.1158,-0.1134,-0.1135,-0.1134,-0.1134,-0.1134,0,0,-0.1037,-0.1042,-0.105,-0.1061,-0.107,-0.1082,-0.1079,-0.1097,-0.1109,-0.1106,-0.1138,-0.114,-0.1138,-0.1152,-0.1161,-0.1153,-0.1153,-0.1168,-0.1171,-0.1161,-0.1136,-0.1136,-0.1136,-0.1135,-0.1135,-0.1135,0,0,-0.1054,-0.1067,-0.1082,-0.1089,-0.1103,-0.1105,-0.1114,-0.1125,-0.1137,-0.1159,-0.1159,-0.1169,-0.1184,-0.1178,-0.1177,-0.1201,-0.1172,-0.1208,-0.1218,-0.1196,-0.1195,-0.1194,-0.116,-0.1155,-0.1211,-0.1211,-0.1211,0,-0.107,-0.1081,-0.1088,-0.1103,-0.1109,-0.1118,-0.113,-0.1143,-0.1161,-0.1163,-0.1176,-0.1187,-0.1191,-0.119,-0.1204,-0.1207,-0.1187,-0.1202,-0.1199,-0.1197,-0.1196,-0.1161,-0.1155,-0.1213,-0.1213,-0.1212,-0.1212,0,-0.1089,-0.1105,-0.1115,-0.1135,-0.1146,-0.1157,-0.1166,-0.1183,-0.1197,-0.1199,-0.1211,-0.1215,-0.1215,-0.1224,-0.1224,-0.1218,-0.1204,-0.1204,-0.1185,-0.1197,-0.116,-0.1154,-0.1215,-0.1214,-0.1214,-0.1214,0,0,-0.1096,-0.1124,-0.1128,-0.1134,-0.1159,-0.1162,-0.1188,-0.1194,-0.1201,-0.1223,-0.1222,-0.1237,-0.1234,-0.1232,-0.1231,-0.122,-0.1198,-0.1214,-0.1212,-0.1173,-0.1139,-0.1043,-0.1027,-0.12,-0.12,-0.1199,-0.1116,0,-0.1106,-0.1128,-0.1144,-0.1163,-0.1167,-0.1183,-0.1201,-0.1212,-0.1222,-0.1227,-0.1225,-0.1229,-0.1239,-0.124,-0.1231,-0.1205,-0.1184,-0.1219,-0.1138,-0.1135,-0.1042,-0.1017,-0.1197,-0.1112,-0.111,-0.1109,-0.1108,0,-0.1106,-0.1119,-0.1138,-0.1154,-0.1159,-0.1181,-0.1191,-0.1208,-0.1218,-0.1224,-0.1227,-0.1226,-0.1214,-0.1223,-0.1175,-0.1199,-0.117,-0.115,-0.1146,-0.1038,-0.1026,-0.1097,-0.1097,-0.1098,-0.1099,-0.11,-0.11,0,-0.107,-0.1105,-0.1115,-0.1123,-0.1154,-0.1168,-0.1188,-0.1206,-0.1211,-0.122,-0.1217,-0.1209,-0.1192,-0.1169,-0.1131,-0.1154,-0.1066,-0.1088,-0.0969,-0.0962,-0.1064,-0.1065,-0.1043,-0.1043,-0.1044,-0.1044,-0.1044,0,-0.1043,-0.1053,-0.1103,-0.1105,-0.1119,-0.115,-0.1164,-0.1182,-0.12,-0.1183,-0.1212,-0.118,-0.1178,-0.1132,-0.1112,-0.1004,-0.1044,-0.095,-0.0927,-0.1078,-0.1083,-0.1059,-0.1062,-0.1041,-0.1041,-0.1042,-0.1043,0,-0.0988,-0.1023,-0.1037,-0.1083,-0.11,-0.1109,-0.1153,-0.1148,-0.1182,-0.116,-0.116,-0.1145,-0.1065,-0.1048,-0.0984,-0.095,-0.0882,-0.0837,-0.0981,-0.0971,-0.0801,-0.0807,-0.0691,-0.0687,-0.0683,-0.068,-0.0677,0,-0.0954,-0.096,-0.1017,-0.1022,-0.1047,-0.1074,-0.1079,-0.1129,-0.1116,-0.1114,-0.1078,-0.1023,-0.0995,-0.0821,-0.0824,-0.0751,-0.0747,-0.072,-0.0778,-0.0772,-0.0762,-0.0773,-0.0784,-0.0672,-0.0671,-0.067,-0.0669,0,-0.089,-0.0927,-0.0938,-0.0951,-0.0966,-0.0976,-0.099,-0.0978,-0.1003,-0.1054,-0.0953,-0.0897,-0.0792,-0.0729,-0.0667,-0.063,-0.0747,-0.0682,-0.0691,-0.0745,-0.0747,-0.0744,-0.0758,-0.0656,-0.0658,-0.0659,-0.066,0,-0.0844,-0.0839,-0.0858,-0.0856,-0.0873,-0.0845,-0.0879,-0.0845,-0.0847,-0.0863,-0.0817,-0.0765,-0.0762,-0.0661,-0.061,-0.0553,-0.0551,-0.0557,-0.0572,-0.0586,-0.059,-0.0579,-0.0394,0,0,0,0,0,-0.0788,-0.076,-0.0753,-0.0738,-0.075,-0.0754,-0.0788,-0.0821,-0.086,-0.0759,-0.079,-0.0691,-0.0591,-0.0571,-0.0484,-0.0552,-0.0554,-0.0451,-0.0571,-0.0587,-0.0601,-0.0615,0,0,0,0,0,0,-0.074,-0.0732,-0.0715,-0.0631,-0.0599,-0.0593,-0.0611,-0.0647,-0.0604,-0.0653,-0.0594,-0.064,-0.0546,-0.0607,-0.0461,-0.0455,-0.0515,-0.044,-0.0437,-0.0578,-0.0592,-0.0603,-0.0623,0,0,0,0,0]},{"header":{"parameterUnit":"m.s-1","parameterCategory":2,"la1":30.2991,"la2":30.254,"lo1":-89.0895,"lo2":-89.0444,"dy":0.0017,"dx":0.0017,"nx":28,"ny":28,"refTime":"2024-12-18T03:00:00:Z","depth":"4","parameterNumber":3,"parameterNumberName":"V-component_of_CURRENTS"},"data":[0,0,0,0,0,0,0,0,0,0,0,0,0,0,0,0,0,0,0,0,0,0,0,0,0,0,0,0,0,0,0,0,0,0,0,0,0,0,0,0,0,0,0,0,0,0,0,0,0,0,0,0,0,0,0,0,0,0,-0.0359,-0.0359,0,-0.0348,-0.0348,-0.0348,-0.035,-0.035,-0.035,-0.0351,-0.0331,-0.033,-0.0329,0,0,0,0,0,0,0,0,0,0,0,0,0,-0.0362,-0.0362,-0.0359,-0.0359,-0.0359,-0.0348,-0.0348,-0.0348,-0.035,-0.035,-0.035,-0.0351,-0.0331,-0.033,-0.0329,0,0,0,0,0,0,0,0,0,0,0,0,0,-0.0358,-0.0362,-0.0359,-0.0358,-0.0358,-0.0348,-0.0348,-0.0348,-0.035,-0.035,-0.035,-0.0351,-0.0331,-0.033,-0.0329,-0.0319,0,0,-0.0326,-0.0326,0,0,0,0,0,0,0,0,-0.0358,-0.0358,-0.0358,-0.0358,-0.0358,-0.035,-0.0342,-0.0338,-0.035,-0.0353,-0.0351,-0.0351,-0.0336,-0.0335,-0.0333,-0.0318,-0.0317,-0.0326,-0.0326,-0.0325,-0.0325,0,0,0,0,0,0,0,-0.0358,-0.0358,-0.0355,-0.0358,-0.0358,-0.0352,-0.0352,-0.0341,-0.0344,-0.0353,-0.0353,-0.0351,-0.0336,-0.0334,-0.0332,-0.0317,-0.0326,-0.0325,-0.0325,-0.0324,-0.0282,-0.0281,0,0,0,0,0,0,-0.0359,-0.0358,-0.0356,-0.0355,-0.0358,-0.0352,-0.0351,-0.0353,-0.0344,-0.0343,-0.0351,-0.0351,-0.0335,-0.0334,-0.0332,-0.0311,-0.0325,-0.0324,-0.0324,-0.0282,-0.0282,-0.0281,0,0,0,0,0,0,-0.036,-0.0359,-0.0356,-0.0356,-0.0355,-0.0351,-0.0353,-0.0353,-0.0356,-0.0342,-0.0341,-0.0356,-0.0336,-0.0333,-0.0322,-0.031,-0.0324,-0.0323,-0.0283,-0.0282,-0.0282,-0.0274,0,0,0,0,0,0,-0.036,-0.036,-0.0366,-0.0356,-0.0355,-0.0353,-0.0353,-0.0352,-0.0354,-0.0355,-0.0346,-0.0344,-0.0336,-0.0323,-0.0321,-0.0309,-0.0322,-0.0284,-0.0283,-0.0282,-0.0275,-0.0273,-0.0271,0,0,0,0,0,-0.036,-0.0365,-0.0367,-0.0367,-0.0363,-0.0353,-0.0352,-0.035,-0.0354,-0.0355,-0.0346,-0.0345,-0.0315,-0.0322,-0.0319,-0.0307,-0.0284,-0.0283,-0.0282,-0.0276,-0.0273,-0.0271,0,0,0,0,0,0,-0.0371,-0.0365,-0.0367,-0.0371,-0.0364,-0.0353,-0.0355,-0.0353,-0.0348,-0.0351,-0.034,-0.0337,-0.0322,-0.0316,-0.0324,-0.0292,-0.0298,-0.0297,-0.0295,-0.0292,-0.0291,-0.0289,-0.0321,0,0,0,0,0,-0.0376,-0.0379,-0.037,-0.0374,-0.0371,-0.0365,-0.0363,-0.0361,-0.0352,-0.0351,-0.0342,-0.033,-0.0314,-0.0306,-0.0294,-0.0278,-0.0266,-0.0267,-0.0265,-0.0264,-0.026,-0.0228,-0.0223,-0.0277,-0.0277,-0.0277,0,0,-0.0382,-0.0379,-0.0382,-0.0377,-0.0373,-0.0364,-0.0365,-0.0362,-0.0353,-0.0349,-0.0337,-0.0327,-0.0309,-0.0289,-0.0281,-0.0283,-0.0243,-0.0262,-0.0261,-0.0258,-0.0226,-0.0221,-0.0216,-0.0277,-0.0277,-0.0277,0,0,-0.0387,-0.0392,-0.0392,-0.0386,-0.0379,-0.0371,-0.0371,-0.0361,-0.0356,-0.0343,-0.0333,-0.0314,-0.0299,-0.0274,-0.0261,-0.0242,-0.0237,-0.0244,-0.023,-0.0199,-0.0194,-0.019,-0.0174,-0.0168,-0.024,-0.024,-0.024,0,-0.0395,-0.0393,-0.0391,-0.0385,-0.0379,-0.0374,-0.0366,-0.0357,-0.0343,-0.0333,-0.034,-0.03,-0.0287,-0.0248,-0.024,-0.0237,-0.0228,-0.024,-0.0197,-0.0192,-0.0188,-0.0172,-0.0166,-0.024,-0.024,-0.024,-0.024,0,-0.0392,-0.0393,-0.0392,-0.0382,-0.0374,-0.0369,-0.0352,-0.0343,-0.0339,-0.0326,-0.0298,-0.0278,-0.0253,-0.0242,-0.0236,-0.0194,-0.0202,-0.0201,-0.0203,-0.0182,-0.0167,-0.016,-0.0239,-0.0239,-0.0239,-0.0239,0,0,-0.0405,-0.0393,-0.0394,-0.0389,-0.0373,-0.0366,-0.0346,-0.0323,-0.031,-0.0294,-0.0272,-0.0236,-0.023,-0.0214,-0.02,-0.017,-0.0131,-0.0174,-0.0173,-0.016,-0.0075,-0.0091,-0.0085,-0.0126,-0.0125,-0.0124,-0.0079,0,-0.0405,-0.0398,-0.0387,-0.0377,-0.037,-0.0354,-0.0335,-0.0314,-0.0297,-0.0275,-0.0245,-0.0224,-0.0217,-0.0209,-0.0175,-0.0145,-0.0113,-0.0144,-0.0096,-0.0095,-0.0112,-0.0078,-0.012,-0.0074,-0.0073,-0.0072,-0.0071,0,-0.0404,-0.0399,-0.0393,-0.0374,-0.0369,-0.0362,-0.0334,-0.0316,-0.0278,-0.0266,-0.0236,-0.0219,-0.0172,-0.0175,-0.0104,-0.0129,-0.0099,-0.0075,-0.0073,-0.0084,-0.0098,-0.0098,-0.0059,-0.006,-0.0061,-0.0062,-0.0063,0,-0.0415,-0.0401,-0.04,-0.0394,-0.0371,-0.0366,-0.0353,-0.0319,-0.0305,-0.0264,-0.0254,-0.0199,-0.0181,-0.013,-0.0087,-0.0094,-0.0016,-0.0019,-0.0002,-0.0003,-0.0008,-0.0013,0.004,0.004,0.004,0.004,0.004,0,-0.0415,-0.0414,-0.041,-0.041,-0.0409,-0.0383,-0.0376,-0.0352,-0.032,-0.0306,-0.0258,-0.0237,-0.0169,-0.0122,-0.0079,-0.0024,-0.0008,0.001,0.0015,-0.0007,-0.0012,-0.0004,-0.0009,0.0042,0.0041,0.0041,0.0041,0,-0.0427,-0.0423,-0.0428,-0.0418,-0.0419,-0.0422,-0.041,-0.0402,-0.0363,-0.0345,-0.0335,-0.0262,-0.0198,-0.0132,-0.0048,-0.0021,0.0037,0.0053,0.002,0.002,0.0027,0.0021,0.0082,0.0082,0.0082,0.0082,0.0082,0,-0.043,-0.0435,-0.0451,-0.0465,-0.0468,-0.0471,-0.0475,-0.0438,-0.0428,-0.0364,-0.0358,-0.0283,-0.0235,-0.0124,-0.0054,0.0035,0.0044,0.007,0.006,0.0036,0.0035,0.0029,0.0023,0.0082,0.0082,0.0082,0.0082,0,-0.044,-0.0457,-0.0467,-0.05,-0.0519,-0.0527,-0.0526,-0.0517,-0.047,-0.0442,-0.0371,-0.0299,-0.0221,-0.0129,-0.0058,0.0004,0.0052,0.007,0.007,0.0062,0.0037,0.0034,0.0028,0.0082,0.0082,0.0082,0.0082,0,-0.0459,-0.0479,-0.0503,-0.0527,-0.0556,-0.0565,-0.0561,-0.0535,-0.051,-0.0433,-0.0415,-0.0313,-0.0251,-0.0145,-0.0081,-0.0019,-0.0005,0.0007,0.0011,0.0011,-0.0024,-0.0067,-0.004,0,0,0,0,0,-0.047,-0.0493,-0.0522,-0.0545,-0.0574,-0.0582,-0.0584,-0.0569,-0.0529,-0.0488,-0.0444,-0.0369,-0.0246,-0.0182,-0.0122,-0.0091,-0.0004,-0.002,0.0008,0.0082,0.0082,0.005,0,0,0,0,0,0,-0.048,-0.0514,-0.0524,-0.0551,-0.0566,-0.0587,-0.0588,-0.0563,-0.0527,-0.0481,-0.0412,-0.0364,-0.0244,-0.028,-0.0122,-0.0101,-0.0078,0.0043,0.0044,0.0082,0.0082,0.0082,0.0049,0,0,0,0,0]}]]